TimeEDT,TemperatureF,Dew PointF,Humidity,Sea Level PressureIn,VisibilityMPH,Wind Direction,Wind SpeedMPH,Gust SpeedMPH,PrecipitationIn,Events,Conditions,WindDirDegrees,DateUTC
12:53 AM,46.9,28.0,48,29.83,10.0,West,9.2,-,N/A,,Clear,270,2013-03-21 04:53:00
2:53 AM,48.0,23.0,37,29.82,10.0,NW,9.2,-,N/A,,Clear,310,2013-03-21 06:53:00
3:53 AM,46.0,24.1,42,29.83,10.0,NW,9.2,18.4,N/A,,Clear,310,2013-03-21 07:53:00
4:53 AM,45.0,26.1,48,29.84,10.0,NW,6.9,-,N/A,,Clear,310,2013-03-21 08:53:00
5:53 AM,43.0,25.0,49,29.86,10.0,NW,8.1,-,N/A,,Clear,320,2013-03-21 09:53:00
6:53 AM,41.0,21.9,47,29.87,10.0,NW,5.8,-,N/A,,Clear,310,2013-03-21 10:53:00
7:53 AM,39.9,21.9,49,29.88,10.0,WNW,5.8,-,N/A,,Clear,300,2013-03-21 11:53:00
8:53 AM,42.1,24.1,49,29.88,10.0,NW,10.4,-,N/A,,Clear,310,2013-03-21 12:53:00
9:53 AM,44.1,23.0,43,29.89,10.0,WNW,9.2,18.4,N/A,,Clear,300,2013-03-21 13:53:00
10:53 AM,46.0,21.9,39,29.88,10.0,NW,9.2,-,N/A,,Clear,320,2013-03-21 14:53:00
11:53 AM,48.9,21.9,35,29.88,10.0,West,13.8,-,N/A,,Clear,270,2013-03-21 15:53:00
12:53 PM,51.1,16.0,25,29.87,10.0,WNW,12.7,21.9,N/A,,Clear,290,2013-03-21 16:53:00
1:53 PM,54.0,12.0,19,29.85,10.0,West,13.8,23.0,N/A,,Clear,280,2013-03-21 17:53:00
2:53 PM,55.0,10.9,17,29.83,10.0,WSW,13.8,24.2,N/A,,Clear,250,2013-03-21 18:53:00
3:53 PM,55.9,10.0,16,29.82,10.0,WNW,19.6,26.5,N/A,,Clear,290,2013-03-21 19:53:00
4:53 PM,55.9,8.1,15,29.82,10.0,WNW,12.7,26.5,N/A,,Clear,300,2013-03-21 20:53:00
5:53 PM,55.0,7.0,15,29.83,10.0,WNW,18.4,26.5,N/A,,Clear,300,2013-03-21 21:53:00
6:53 PM,53.1,9.0,17,29.86,10.0,NW,10.4,-,N/A,,Clear,310,2013-03-21 22:53:00
7:53 PM,50.0,12.0,22,29.88,10.0,WNW,4.6,-,N/A,,Clear,300,2013-03-21 23:53:00
8:53 PM,48.0,15.1,27,29.90,10.0,NW,3.5,-,N/A,,Clear,310,2013-03-22 00:53:00
9:53 PM,42.1,19.0,40,29.93,10.0,Calm,Calm,-,N/A,,Clear,0,2013-03-22 01:53:00
10:53 PM,45.0,17.1,33,29.94,10.0,NW,3.5,-,N/A,,Clear,320,2013-03-22 02:53:00
11:53 PM,42.1,19.9,41,29.97,10.0,North,4.6,-,N/A,,Clear,350,2013-03-22 03:53:00